Location: Flumini Malu
(39.7000°N, 8.5667°E)
Time: 05:13:52
(UTC+00:00)

Daily predictions for brighter satellites

Satellite Brightness Start Highest point End
(mag) Time Altitude Azimuth Time Altitude Azimuth Time Altitude Azimuth
Atlas Centaur 2 4.4 01:53:42 23° SE 01:53:42 23° SE 01:57:12 10° ESE
ALOS 4.4 02:03:16 10° NE 02:05:40 23° ENE 02:05:40 23° ENE
Meteor 2-11 Rocket 4.4 02:39:39 73° N 02:39:39 73° N 02:45:08 10° N
USA 234 4.2 02:33:19 10° ENE 02:39:22 39° SE 02:41:22 31° SSE
Cosmos 1833 Rocket 4.0 02:38:02 28° SE 02:39:55 35° ESE 02:45:00 10° NE
CZ-2C R/B 2.8 02:40:57 10° NNE 02:45:49 59° E 02:45:49 59° E
Cosmos 2251 Rocket 4.0 02:41:25 10° N 02:46:37 56° ENE 02:51:44 10° SSE
Cosmos 2123 Rocket 3.8 02:49:29 10° N 02:55:44 81° W 02:57:13 55° S
FENGYUN 3A 3.7 02:50:31 10° N 02:55:11 64° NNW 02:55:11 64° NNW
Cosmos 1151 Rocket 3.9 02:59:57 42° ESE 03:00:37 46° E 03:04:42 10° NNE
ADEOS II 4.4 02:57:38 10° NNW 02:58:10 12° NNW 02:58:10 12° NNW
SL-19 R/B 4.3 02:56:37 10° NNE 03:02:53 82° WNW 03:04:10 58° SSW
Cosmos 1140 Rocket 4.1 02:58:51 10° N 03:03:58 56° ENE 03:09:04 10° SSE
Sich 1 3.7 03:00:57 10° N 03:04:07 47° N 03:04:07 47° N
Cosmos 1697 Rocket 4.4 03:00:44 10° N 03:05:48 32° ENE 03:10:49 10° ESE
Cosmos 1934 Rocket 4.0 03:08:36 56° W 03:08:53 56° W 03:15:09 10° N
Cosmos 1535 Rocket 4.3 03:09:08 58° SW 03:10:07 67° W 03:16:12 10° N
Cosmos 1605 Rocket 3.8 03:08:56 35° S 03:11:40 87° W 03:17:47 10° N
Cosmos 1346 Rocket 4.2 03:11:34 19° SSE 03:13:59 37° E 03:17:40 10° NNE
CBERS-1 4.3 03:09:06 10° N 03:13:28 49° NW 03:13:28 49° NW
ATLAS CENTAUR R/B 3.4 03:11:26 16° SSE 03:14:26 30° ESE 03:18:41 10° NE
Cosmos 1356 4.5 03:16:27 42° ENE 03:16:27 42° ENE 03:19:10 10° NNE
Cosmos 2056 Rocket 4.1 03:13:20 20° S 03:16:41 52° ESE 03:21:38 10° NNE
Cosmos 2084 3.3 03:17:23 83° E 03:17:23 83° E 03:21:34 10° SE
USA 305 2.8 03:18:17 81° E 03:18:17 81° E 03:22:15 10° NE
Meteor 1-10 Rocket 4.4 03:14:45 13° S 03:19:45 68° E 03:25:17 10° NNE
CZ-2C R/B 3.1 03:15:56 10° SSE 03:21:01 61° ENE 03:26:12 10° N
METEOR-M 4.0 03:21:46 10° N 03:27:09 79° WNW 03:29:54 30° SSW
DELTA 2 R/B (1) 4.1 03:30:00 35° SSW 03:31:57 51° SSE 03:37:22 10° E
IRS-P3 4.0 03:27:40 10° NNE 03:33:02 80° WNW 03:36:42 21° SSW
PAYLOAD A 4.1 03:29:28 10° N 03:34:03 47° WNW 03:34:36 45° W
Cosmos 407 Rocket 3.4 03:31:11 10° NNW 03:36:32 82° WSW 03:41:51 10° SSE
Tiangong -2.1 03:38:03 74° ESE 03:38:03 74° ESE 03:40:57 10° ESE
Atlas Centaur 2 3.5 03:36:13 27° SW 03:39:44 40° S 03:46:04 10° ESE
CZ-2D R/B 3.2 03:37:46 10° NNE 03:41:44 85° W 03:44:05 24° SSW
BREEZE-M DEB (TANK) 3.8 03:41:11 17° NNW 03:42:51 29° NNE 03:48:00 10° E
X-37B 0.9 03:43:15 48° N 03:43:15 48° N 03:45:49 10° ENE
Meteor 1-29 3.5 03:40:18 10° NNE 03:43:32 54° E 03:46:36 11° S
Cosmos 1980 Rocket 4.0 03:39:17 10° N 03:44:18 32° ENE 03:49:17 10° ESE
ALOS 3.4 03:40:41 10° NNW 03:44:08 26° WNW 03:44:08 26° WNW
Meteor 1-14 Rocket 4.5 03:39:02 10° NNW 03:44:41 48° W 03:50:13 10° SSW
Cosmos 1656 3.7 03:39:24 10° NNW 03:44:59 57° WSW 03:50:30 10° S
Cosmos 2173 Rocket 4.3 03:44:16 10° S 03:50:20 68° E 03:56:24 10° NNE
USA 307 2.9 03:51:03 38° WSW 03:52:26 63° NW 03:56:34 10° NE
H-2A R/B 3.4 03:51:22 10° NNE 03:54:57 53° E 03:58:31 10° S
Helios 1B rocket 3.3 03:51:56 10° N 03:55:27 29° WNW 03:55:38 29° WNW
ARIANE 5 R/B 2.7 03:52:27 10° N 03:57:18 48° WNW 04:00:51 17° SW
SL-08 R/B 3.1 03:54:55 10° S 03:59:31 78° WSW 04:04:13 10° NNW
Meteor 1-11 Rocket 3.8 03:55:42 10° NNW 04:01:41 81° W 04:07:37 10° S
GP-B 3.8 03:58:06 10° SSE 04:02:25 57° E 04:06:46 10° N
Cosmos 1633 Rocket 3.0 04:02:01 10° NNW 04:06:17 58° W 04:10:31 10° S
USA 306 3.4 04:05:17 26° W 04:07:06 40° NW 04:11:01 10° NE
Cosmos 1484 Rocket 3.3 04:06:18 10° N 04:09:59 38° WNW 04:12:53 15° SW
Cosmos 676 Rocket 4.1 04:07:45 10° NNW 04:12:59 81° ENE 04:18:14 10° SSE
CZ-3 R/B 3.8 03:53:52 13° WSW 04:13:10 40° S 04:20:16 10° ESE
Cosmos 1933 Rocket 4.4 04:10:14 10° N 04:14:36 55° E 04:18:55 10° SSE
Cosmos 1624 Rocket 4.4 04:10:45 12° SW 04:15:18 45° WNW 04:20:25 10° N
Cosmos 2098 Rocket 2.7 04:13:12 10° NNW 04:15:50 32° W 04:18:35 10° SSW
Cosmos 1666 Rocket 4.1 04:11:53 10° NNW 04:15:59 36° W 04:20:04 10° SSW
Cosmos 2360 4.2 04:12:11 10° NNW 04:17:51 67° WSW 04:23:27 10° S
Cosmos 2100 Rocket 3.9 04:12:44 10° SSW 04:18:51 68° W 04:24:59 10° N
Cosmos 1328 Rocket 4.1 04:15:41 10° SW 04:19:41 36° WNW 04:23:45 10° N
Meteor 1-4 Rocket 2.5 04:17:04 10° NNW 04:20:38 61° W 04:24:13 10° S
CZ-2C R/B 3.2 04:15:31 10° N 04:21:17 71° WNW 04:26:50 10° SSW
USA 234 3.4 04:16:05 10° NE 04:22:29 60° NW 04:28:44 11° WSW
CZ-2C R/B 4.0 04:20:33 10° NNW 04:23:33 16° WNW 04:25:10 14° W
Cosmos 1833 Rocket 3.5 04:19:47 15° WSW 04:23:49 32° WNW 04:28:52 10° N
BREEZE-M DEB (TANK) 3.2 04:20:34 10° WNW 04:25:01 47° NNE 04:27:22 10° E
Meteor 2-13 Rocket 4.4 04:20:03 10° NNW 04:26:10 74° W 04:32:17 10° S
USA 308 3.7 04:24:31 16° W 04:27:19 35° NNW 04:31:10 10° NE
ERBS 4.3 04:28:18 10° NW 04:29:14 11° NNW 04:30:11 10° NNW
CZ-2C R/B 2.4 04:27:27 10° NNW 04:29:40 44° W 04:34:39 10° SSW
Envisat 3.4 04:25:13 10° N 04:30:00 42° WNW 04:34:45 10° SW
Cosmos 2016 Rocket 4.1 04:25:02 10° S 04:31:22 90° WSW 04:37:47 10° N
Meteor 1-19 Rocket 4.1 04:26:18 10° S 04:31:48 86° W 04:37:15 10° N
COSMOS 2406 3.4 04:27:13 10° SW 04:32:43 52° WNW 04:38:15 10° NNE
Cosmos 1536 3.4 04:29:54 10° NNW 04:33:37 36° W 04:37:19 10° SSW
Cosmos 2082 Rocket 2.2 04:28:20 10° SSW 04:33:54 67° WNW 04:39:30 10° NNE
PSLV R/B 3.6 04:30:17 10° N 04:34:34 60° WNW 04:38:46 10° SSW
Cosmos 1515 Rocket 3.8 04:33:27 10° SSW 04:37:41 46° W 04:41:59 10° N
Cosmos 44 Rocket 3.2 04:33:37 10° SW 04:38:19 68° WNW 04:43:02 10° NNE
YAOGAN 6 4.1 04:37:52 10° NNW 04:40:27 19° WNW 04:43:02 10° WSW
Cosmos 1816 Rocket 4.5 04:39:18 10° N 04:45:33 84° W 04:51:42 10° S
Cosmos 1470 Rocket 4.1 04:43:01 10° NNW 04:46:56 34° W 04:50:51 10° SSW
Cosmos 1697 Rocket 3.3 04:44:38 10° NW 04:49:43 35° WSW 04:54:47 10° SSW
Cosmos 1461 3.4 04:49:00 10° SSW 04:52:52 61° ESE 04:56:55 10° NE
ATLAS CENTAUR R/B 2.5 04:48:43 10° WSW 04:53:06 34° NW 04:57:34 10° NNE
ASTRO E2 4.3 04:50:28 10° SW 04:53:39 24° S 04:56:50 10° SE
BREEZE M DEB (TANK) 3.9 04:40:44 10° WSW 04:53:59 54° NNW 04:57:49 10° NE
Cosmos 1850 Rocket 4.3 04:52:04 10° NNW 04:57:25 77° ENE 05:02:44 10° SSE
